Tracking 35237 objects as of 6-Sep-2026
HD Live streaming from Space Station
objects crossing your sky now

COSMOS 1126 DEB


COSMOS 1126 DEB is no longer on orbit


NORAD ID: 11527
Int'l Code: 1979-079F
Launch date: August 31, 1979
Source: Commonwealth of Independent States (former USSR) (CIS)
Launch site: PLESETSK MISSILE AND SPACE COMPLEX (PKMTR)
Decay date: 1979-09-16

Note: This is SATELLITE DEBRIS
Your satellite tracking list
Your tracking list is empty




NASA's NSSDC Master Catalog

Two Line Element Set (TLE):
1 11527U 79079  F 79259.08445089  .14179659 +08449-7 +07987-2 0  9995
2 11527 073.3528 118.8335 0086300 208.4478 151.2026 15.83748055002448
Source of the keplerian elements: AFSPC